Regional Weather Roundup
Issued by NWS

Home | Current Version | Previous Version | Graphics & Text | Print | Product List | Glossary On
Versions: 1 2 3 4 5 6 7 8 9 10 11 12 13 14 15 16 17 18 19 20 21 22 23 24 25 26 27 28 29 30 31 32 33 34 35 36 37 38 39 40 41 42 43 44 45 46 47 48 49 50
000
ASUS45 KPSR 281210
RWRAZ

ARIZONA HOURLY REGIONAL WEATHER ROUNDUP
NATIONAL WEATHER SERVICE PHOENIX AZ
500 AM MST WED SEP 28 2016

NOTE: FAIR INDICATES FEW OR NO CLOUDS BELOW 12,000 FEET WITH NO
SIGNIFICANT WEATHER AND/OR OBSTRUCTIONS TO VISIBILITY.

AZZ001>003-036-281300-
NORTHWEST ARIZONA

CITY           SKY/WX    TMP DP  RH WIND       PRES   REMARKS
BULLHEAD CITY  PTCLDY    72  54  53 SE5       29.93S
KINGMAN        CLOUDY    67  44  43 CALM      30.08R
6HR MIN TEMP:  59; 6HR MAX TEMP:  69;

$$

AZZ004>008-015-016-018-281300-
NORTH CENTRAL ARIZONA

CITY           SKY/WX    TMP DP  RH WIND       PRES   REMARKS
GRAND CANYON   PTCLDY    44  40  85 NE3       30.28R
6HR MIN TEMP:  44; 6HR MAX TEMP:  60;

PRESCOTT       PTCLDY    51  49  92 CALM      30.17R
6HR MIN TEMP:  50; 6HR MAX TEMP:  58; 6HR PCP:  0.02;

FLAGSTAFF      CLOUDY    42  41  96 CALM      30.29R
6HR MIN TEMP:  41; 6HR MAX TEMP:  49; 6HR PCP:  0.06;

PAYSON         PTCLDY    61  48  63 E6        30.21S
PAGE           MOCLDY    62  41  46 CALM      30.15S
6HR MIN TEMP:  62; 6HR MAX TEMP:  70;

$$

AZZ009>014-017-281300-
NORTHEAST ARIZONA

CITY           SKY/WX    TMP DP  RH WIND       PRES   REMARKS
WINSLOW        PTCLDY    48  46  93 SW3       30.21R
6HR MIN TEMP:  48; 6HR MAX TEMP:  59; 6HR PCP:  0.01;

SAINT JOHNS    PTCLDY    52  48  86 S5        30.23R
6HR MIN TEMP:  48; 6HR MAX TEMP:  54;

WINDOW ROCK    PTCLDY    42  37  82 CALM      30.31S
6HR MIN TEMP:  40; 6HR MAX TEMP:  52;

SHOW LOW       MOCLDY    46  45  93 E5        30.27F
$$

AZZ023-281300-
GREATER PHOENIX AREA

CITY           SKY/WX    TMP DP  RH WIND       PRES   REMARKS
PHOENIX        MOCLDY    75  54  47 SE8       29.91F
6HR MIN TEMP:  70; 6HR MAX TEMP:  80;

BUCKEYE        CLOUDY    68  48  49 NW6       29.92F
LUKE AFB       PTCLDY    74  53  46 N8        29.91S
6HR MIN TEMP:  71; 6HR MAX TEMP:  78;

DEER VALLEY    MOCLDY    76  50  40 E5        29.93S
6HR MIN TEMP:  74; 6HR MAX TEMP:  78;

SCOTTSDALE     MOCLDY    74  53  48 CALM      29.95S
6HR MIN TEMP:  73; 6HR MAX TEMP:  80;

MESA-GATEWAY   MOCLDY    70  55  60 SE6       29.95S
$$

AZZ027-028-281300-
SOUTHWEST MARICOPA COUNTY AND PINAL COUNTY

CITY           SKY/WX    TMP DP  RH WIND       PRES   REMARKS
CASA GRANDE    PTCLDY    68  54  60 NE7       29.95S
6HR MIN TEMP:  66; 6HR MAX TEMP:  72;

GILA BEND      FAIR      69  50  51 SW3       29.89R
6HR MIN TEMP:  67; 6HR MAX TEMP:  76;

$$

AZZ503-504-507>509-281300-
SOUTHEAST ARIZONA

CITY           SKY/WX    TMP DP  RH WIND       PRES   REMARKS
TUCSON         MOCLDY    67  59  75 S6        30.01S
6HR MIN TEMP:  66; 6HR MAX TEMP:  73; 6HR PCP: TRACE;

DAVIS-MONTHAN  MOCLDY    69  57  64 SE15      30.01R
6HR MIN TEMP:  67; 6HR MAX TEMP:  73; 6HR PCP: TRACE;

NOGALES        PTCLDY    59  54  83 NE6       30.07R
6HR MIN TEMP:  57; 6HR MAX TEMP:  69; 6HR PCP:  0.01;

SIERRA VISTA   CLOUDY    59  55  88 NE6       30.15R
6HR MIN TEMP:  60; 6HR MAX TEMP:  62; 6HR PCP: TRACE;

DOUGLAS        CLOUDY    59  57  93 W6        30.12S
6HR MIN TEMP:  59; 6HR MAX TEMP:  63; 6HR PCP:  0.01;

SAFFORD        MOCLDY    64  58  80 S15       30.12R
6HR MIN TEMP:  63; 6HR MAX TEMP:  69; 6HR PCP:  0.04;

$$

AZZ020-021-025-026-031-281300-
SOUTHWEST ARIZONA

CITY           SKY/WX    TMP DP  RH WIND       PRES   REMARKS
YUMA           NOT AVBL
$$

CAZ031-033-041-043-047-048-061-281300-
SOUTHERN CALIFORNIA

CITY           SKY/WX    TMP DP  RH WIND       PRES   REMARKS
DOWNTOWN L.A.  MOCLDY    73  60  63 E3        29.88S
6HR MIN TEMP:  73; 6HR MAX TEMP:  78;

L.A. AIRPORT   MOCLDY    71  60  68 E7        29.89R
6HR MIN TEMP:  71; 6HR MAX TEMP:  80;

SAN DIEGO      PTCLDY    74  52  46 CALM      29.89S
6HR MIN TEMP:  73; 6HR MAX TEMP:  77;

BURBANK        MOCLDY    73  55  53 E3        29.90S
6HR MIN TEMP:  72; 6HR MAX TEMP:  79;

ONTARIO        PTCLDY    70  50  49 NE3       29.92S
6HR MIN TEMP:  69; 6HR MAX TEMP:  77;

RIVERSIDE      CLEAR     71  51  49 E5        29.92S
6HR MIN TEMP:  70; 6HR MAX TEMP:  76;

PALM SPRINGS   MOCLDY    76  52  43 NW5       29.90R
6HR MIN TEMP:  74; 6HR MAX TEMP:  78; 6HR PCP: TRACE;

EL CENTRO NAS  PTCLDY    72  48  42 NW5       29.86R
6HR MIN TEMP:  71; 6HR MAX TEMP:  78;

IMPERIAL       PTCLDY    73  53  49 CALM      29.84R
6HR MIN TEMP:  73; 6HR MAX TEMP:  82;

BLYTHE         PTCLDY    73  52  47 N7        29.89R
6HR MIN TEMP:  73; 6HR MAX TEMP:  82;

NEEDLES          N/A    N/A N/A N/A MISG      29.92S
$$

NVZ020-UTZ003-281300-
SOUTHERN NEVADA-UTAH

CITY           SKY/WX    TMP DP  RH WIND       PRES   REMARKS
LAS VEGAS      MOCLDY    74  48  39 N6        30.01R
6HR MIN TEMP:  72; 6HR MAX TEMP:  79; 6HR PCP: TRACE;

SALT LAKE CITY CLEAR     55  47  74 SE7       30.15S
6HR MIN TEMP:  55; 6HR MAX TEMP:  61;

$$

NMZ009-TXZ055-281300-
NEW MEXICO-WEST TEXAS

CITY           SKY/WX    TMP DP  RH WIND       PRES   REMARKS
ALBUQUERQUE    PTCLDY    57  44  62 N5        30.26R
6HR MIN TEMP:  56; 6HR MAX TEMP:  63;

EL PASO        PTCLDY    60  50  69 NE3       30.18R
6HR MIN TEMP:  58; 6HR MAX TEMP:  65;

$$


........................KEY........................
SKY/WX - SKY CONDITION/WEATHER
TMP    - TEMPERATURE IN FAHRENHEIT
DP     - DEW POINT IN FAHRENHEIT
RH     - RELATIVE HUMIDITY IN PERCENT
WIND   - DIRECTION AND SPEED IN MILES PER HOUR (MPH)
VRB    - VARIABLE WIND DIRECTION
PRES   - MEAN SEA LEVEL PRESSURE IN INCHES OF MERCURY
         F - FALLING PRESSURE   R - RISING PRESSURE
         S - STEADY PRESSURE
VSB    - VISIBILITY IN MILES
HX     - HEAT INDEX IN FAHRENHEIT
WCI    - WIND CHILL INDEX IN FAHRENHEIT
TC     - TEMPERATURE IN CELSIUS WHICH IS ALSO KNOWN AS
         TEMPERATURE IN CENTIGRADE
AFB    - AIR FORCE BASE
         LUKE AFB IS LUKE AIR FORCE BASE
         DAVIS-MONTHAN IS DAVIS-MONTHAN AIR FORCE BASE
NAS    - NAVAL AIR STATION
         EL CENTRO NAS IS EL CENTRO NAVAL AIR STATION
N/A    - NOT AVAILABLE




USA.gov is the U.S. government's official web portal to all federal, state and local government web resources and services.